Beaver Island, MI

12:53 AM EDT on August 23, 2017 (GMT -0400)
Beaver Island

Weather History for KSJX - March, 2013

Change the Weather History Date:

Sunday, March 31, 2013

  Actual Average Record
Temperature  
Mean Temperature 34 °F -  
Max Temperature 40 °F 42 °F 66 °F (1986)
Min Temperature 27 °F 26 °F 10 °F (2003)
Degree Days  
Heating Degree Days 32    
Moisture  
Dew Point 32 °F    
Average Humidity 93    
Maximum Humidity 100    
Minimum Humidity 69    
Precipitation  
Precipitation 0.00 in - - ()
Sea Level Pressure  
Sea Level Pressure 29.63 in    
Wind  
Wind Speed 11 mph (WSW)    
Max Wind Speed 21 mph    
Max Gust Speed 36 mph    
Visibility 4 miles    
Events Fog , Rain    
Averages and records for this station are not official NWS values.
T = Trace of Precipitation, MM = Missing Value Source: NWS Daily Summary

Daily Weather History Graph

Daily Weather History Graph

Search for Another Location

Airport or City:

Trip Planner

Search our weather history database for the weather conditions in past years. The results will help you decide how hot, cold, wet, or windy it might be!

Date:

Astronomy

Mar. 31, 2013 Rise Set
Actual Time 7:23 AM EDT 8:09 PM EDT
Civil Twilight 6:53 AM EDT 8:39 PM EDT
Nautical Twilight 6:18 AM EDT 9:15 PM EDT
Astronomical Twilight 5:40 AM EDT 9:52 PM EDT
Moon 12:27 AM EDT (3/31) 9:57 AM EDT (3/31)
Length of Visible Light 13h 45m
Length of Day
12h 45m
Waning Gibbous, 78% of the Moon is Illuminated
Mar 31
Waning Gibbous
Apr 3
Last Quarter
Apr 10
New
Apr 18
First Quarter
Apr 25
Full

Hourly Weather History & Observations

Time (EDT) Temp. Windchill Dew Point Humidity Pressure Visibility Wind Dir Wind Speed Gust Speed Precip Events Conditions
12:17 AM 40.1 °F 32.7 °F 39.2 °F 97% 29.75 in 2.5 mi SSW 12.7 mph 16.1 mph N/A   Heavy Drizzle
12:36 AM 39.9 °F 32.9 °F 39.0 °F 97% 29.74 in 2.0 mi SSW 11.5 mph 20.7 mph N/A   Heavy Drizzle
12:56 AM 39.0 °F 31.4 °F 38.1 °F 97% 29.73 in 2.5 mi SSW 12.7 mph 19.6 mph N/A   Drizzle
1:17 AM 37.9 °F 30.9 °F 37.4 °F 98% 29.73 in 1.8 mi SSW 10.4 mph 16.1 mph N/A   Drizzle
1:36 AM 37.4 °F 32.1 °F 36.9 °F 98% 29.73 in 1.2 mi SW 6.9 mph - N/A   Light Drizzle
1:56 AM 37.4 °F 30.8 °F 36.9 °F 98% 29.72 in 0.5 mi SW 9.2 mph 16.1 mph N/A Fog Fog
2:17 AM 36.7 °F 29.4 °F 36.5 °F 99% 29.71 in 0.5 mi SW 10.4 mph - N/A Fog Fog
2:36 AM 36.1 °F 29.9 °F 35.8 °F 99% 29.70 in 0.2 mi WSW 8.1 mph - N/A Fog Fog
2:57 AM 35.8 °F 30.1 °F 35.6 °F 99% 29.69 in 0.2 mi WSW 6.9 mph - N/A Fog Fog
3:16 AM 35.6 °F 28.6 °F 35.2 °F 99% 29.68 in 0.2 mi WSW 9.2 mph - N/A Fog Fog
3:36 AM 35.6 °F 29.2 °F 35.2 °F 99% 29.68 in 0.2 mi WSW 8.1 mph - N/A Fog Fog
3:57 AM 35.6 °F 29.2 °F 35.2 °F 99% 29.67 in 0.2 mi West 8.1 mph - N/A Fog Fog
4:16 AM 35.6 °F 31.7 °F 35.2 °F 99% 29.66 in 0.2 mi West 4.6 mph - N/A Fog Fog
4:36 AM 35.6 °F 29.9 °F 35.2 °F 99% 29.66 in 0.2 mi WSW 6.9 mph - N/A Fog Fog
4:57 AM 34.7 °F 28.8 °F 34.7 °F 100% 29.65 in 0.2 mi WSW 6.9 mph - N/A Fog Fog
5:16 AM 34.5 °F 29.4 °F 34.5 °F 100% 29.65 in 0.2 mi WSW 5.8 mph - N/A Fog Fog
5:36 AM 34.0 °F 27.2 °F 34.0 °F 100% 29.65 in 0.2 mi WSW 8.1 mph - N/A Fog Fog
5:57 AM 32.4 °F 26.9 °F 32.4 °F 100% 29.64 in 0.2 mi WSW 5.8 mph - N/A Fog Fog
6:16 AM 32.0 °F 25.6 °F 32.0 °F 100% 29.64 in 0.2 mi WSW 6.9 mph - N/A Fog Fog
6:37 AM 32.0 °F 26.4 °F 32.0 °F 100% 29.63 in 0.2 mi SW 5.8 mph - N/A Fog Fog
6:56 AM 31.8 °F 26.2 °F 31.8 °F 100% 29.63 in 0.2 mi WSW 5.8 mph - N/A Fog Fog
7:16 AM 31.6 °F 23.7 °F 31.6 °F 100% 29.63 in 0.2 mi WSW 9.2 mph - N/A Fog Light Freezing Fog
7:37 AM 32.0 °F 25.6 °F 32.0 °F 100% 29.63 in 0.2 mi SW 6.9 mph - N/A Fog Fog
7:56 AM 32.0 °F 26.4 °F 32.0 °F 100% 29.62 in 0.2 mi SW 5.8 mph - N/A Fog Fog
8:16 AM 32.0 °F 23.6 °F 32.0 °F 100% 29.62 in 0.2 mi SW 10.4 mph - N/A Fog Fog
8:37 AM 32.4 °F 24.0 °F 32.4 °F 100% 29.62 in 0.2 mi WSW 10.4 mph - N/A Fog Fog
8:56 AM 32.4 °F 25.3 °F 32.4 °F 100% 29.62 in 0.2 mi SW 8.1 mph - N/A Fog Fog
9:16 AM 32.9 °F 25.9 °F 32.9 °F 100% 29.60 in 0.2 mi SSW 8.1 mph 16.1 mph N/A Fog Fog
9:37 AM 33.1 °F 25.5 °F 33.1 °F 100% 29.60 in 0.2 mi SSW 9.2 mph - N/A Fog Fog
9:56 AM 33.3 °F 23.7 °F 33.3 °F 100% 29.59 in 0.2 mi SW 13.8 mph 19.6 mph N/A Fog Fog
10:16 AM 33.1 °F 24.9 °F 33.1 °F 100% 29.59 in 0.2 mi SW 10.4 mph - N/A Fog Fog
10:37 AM 33.6 °F 24.1 °F 33.6 °F 100% 29.58 in 0.2 mi WSW 13.8 mph 17.3 mph N/A Fog Fog
10:56 AM 33.8 °F 24.8 °F 33.8 °F 100% 29.58 in 0.2 mi WSW 12.7 mph - N/A Fog Fog
11:17 AM 33.8 °F 24.3 °F 33.8 °F 100% 29.58 in 0.2 mi SW 13.8 mph - N/A Fog Fog
11:36 AM 34.2 °F 24.8 °F 34.2 °F 100% 29.58 in 0.5 mi SW 13.8 mph 20.7 mph N/A Fog Fog
11:56 AM 35.2 °F 26.2 °F 35.2 °F 100% 29.57 in 1.0 mi SW 13.8 mph 19.6 mph N/A   Overcast
12:17 PM 35.6 °F 26.6 °F 35.6 °F 100% 29.57 in 1.0 mi SW 13.8 mph 19.6 mph N/A   Overcast
12:36 PM 35.4 °F 27.3 °F 35.4 °F 100% 29.57 in 2.5 mi SW 11.5 mph 18.4 mph N/A   Overcast
12:56 PM 34.9 °F 25.7 °F 34.9 °F 100% 29.57 in 4.0 mi SW 13.8 mph 18.4 mph N/A   Overcast
1:17 PM 34.9 °F 25.7 °F 34.9 °F 100% 29.57 in 4.0 mi SW 13.8 mph 18.4 mph N/A   Overcast
1:36 PM 35.6 °F 27.5 °F 35.6 °F 100% 29.56 in 4.0 mi SW 11.5 mph 19.6 mph N/A   Overcast
1:56 PM 36.1 °F 27.7 °F 35.8 °F 99% 29.56 in 5.0 mi SSW 12.7 mph 20.7 mph N/A   Overcast
2:17 PM 36.1 °F 27.7 °F 35.8 °F 99% 29.56 in 5.0 mi SSW 12.7 mph 21.9 mph N/A   Overcast
2:36 PM 36.1 °F 27.3 °F 35.6 °F 98% 29.56 in 5.0 mi SSW 13.8 mph 23.0 mph N/A   Overcast
2:56 PM 36.1 °F 27.3 °F 35.2 °F 97% 29.55 in 7.0 mi SSW 13.8 mph 21.9 mph N/A   Overcast
3:16 PM 36.5 °F 28.2 °F 34.7 °F 93% 29.55 in 7.0 mi SSW 12.7 mph 23.0 mph N/A   Overcast
3:36 PM 36.7 °F 27.2 °F 34.2 °F 91% 29.55 in 7.0 mi SW 16.1 mph 23.0 mph N/A   Overcast
3:57 PM 36.1 °F 26.5 °F 34.2 °F 93% 29.55 in 5.0 mi SW 16.1 mph 21.9 mph N/A   Overcast
4:16 PM 35.6 °F 27.5 °F 34.3 °F 95% 29.56 in 4.0 mi SW 11.5 mph 17.3 mph N/A Rain Light Rain
4:37 PM 35.8 °F 27.8 °F 34.7 °F 96% 29.56 in 4.0 mi SW 11.5 mph 16.1 mph N/A   Light Drizzle
4:57 PM 35.8 °F 27.3 °F 34.7 °F 96% 29.56 in 5.0 mi WSW 12.7 mph 21.9 mph N/A   Overcast
5:16 PM 36.7 °F 30.5 °F 33.1 °F 87% 29.57 in 10.0 mi West 8.1 mph 17.3 mph N/A Rain Light Rain
5:37 PM 37.4 °F 28.9 °F 31.8 °F 80% 29.57 in 10.0 mi West 13.8 mph 19.6 mph N/A   Overcast
5:56 PM 36.3 °F 31.6 °F 31.6 °F 83% 29.58 in 10.0 mi NNW 5.8 mph - N/A   Overcast
6:16 PM 36.1 °F 30.6 °F 31.3 °F 83% 29.58 in 10.0 mi WNW 6.9 mph - N/A   Overcast
6:36 PM 36.3 °F 31.6 °F 30.6 °F 80% 29.58 in 10.0 mi WNW 5.8 mph - N/A   Overcast
6:56 PM 36.1 °F 25.2 °F 28.0 °F 72% 29.61 in 10.0 mi NW 20.7 mph 33.4 mph N/A   Overcast
7:17 PM 32.5 °F 21.2 °F 26.6 °F 79% 29.62 in 10.0 mi NW 18.4 mph 32.2 mph N/A   Mostly Cloudy
7:36 PM 32.0 °F 19.8 °F 25.9 °F 78% 29.64 in 10.0 mi NW 20.7 mph 28.8 mph N/A   Scattered Clouds
7:56 PM 31.1 °F 18.6 °F 23.4 °F 73% 29.65 in 10.0 mi NW 20.7 mph 35.7 mph N/A   Scattered Clouds
8:16 PM 30.7 °F 18.5 °F 23.0 °F 73% 29.66 in 10.0 mi NW 19.6 mph 29.9 mph N/A   Scattered Clouds
8:36 PM 29.5 °F 16.5 °F 21.6 °F 72% 29.67 in 10.0 mi WNW 20.7 mph 34.5 mph N/A   Scattered Clouds
8:57 PM 29.1 °F 17.1 °F 20.1 °F 69% 29.68 in 10.0 mi NW 17.3 mph 32.2 mph N/A   Scattered Clouds
9:16 PM 29.1 °F 17.5 °F 20.8 °F 71% 29.69 in 10.0 mi NW 16.1 mph 31.1 mph N/A   Mostly Cloudy
9:37 PM 28.2 °F 15.2 °F 22.3 °F 78% 29.70 in 10.0 mi WNW 19.6 mph 27.6 mph N/A   Scattered Clouds
9:56 PM 28.2 °F 15.9 °F 22.1 °F 78% 29.71 in 10.0 mi WNW 17.3 mph 27.6 mph N/A   Mostly Cloudy
10:16 PM 27.5 °F 15.4 °F 21.7 °F 79% 29.72 in 10.0 mi WNW 16.1 mph 34.5 mph N/A   Scattered Clouds
10:37 PM 27.5 °F 15.9 °F 21.2 °F 77% 29.72 in 10.0 mi WNW 15.0 mph 28.8 mph N/A   Scattered Clouds
11:16 PM 27.0 °F 16.1 °F 21.6 °F 80% 29.73 in 10.0 mi WNW 12.7 mph 25.3 mph N/A   Scattered Clouds
11:37 PM 27.0 °F 16.1 °F 20.8 °F 78% 29.73 in 10.0 mi WNW 12.7 mph 26.5 mph N/A   Mostly Cloudy
11:56 PM 27.0 °F 15.2 °F 21.0 °F 78% 29.74 in 10.0 mi WNW 15.0 mph 27.6 mph N/A   Mostly Cloudy